[[{"header":{"parameterUnit":"m.s-1","parameterCategory":1,"la1":30.2991,"la2":30.254,"lo1":-89.0895,"lo2":-89.0444,"dy":0.0017,"dx":0.0017,"nx":28,"ny":28,"refTime":"2026-02-03T03:00:00:Z","depth":0,"parameterNumber":2,"parameterNumberName":"U-component_of_WINDS"},"data":[0,0,0,0,0,0,0,0,0,0,0,0,0,0,0,0,0,0,0,0,0,0,0,0,0,0,0,0,0,0,0,0,0,0,0,0,0,0,0,0,0,0,0,0,0,0,0,0,0,0,0,0,0,0,0,0,0,0,1.5737,1.5737,0,1.5798,1.5799,1.58,1.5791,1.579,1.5789,1.5788,1.5856,1.5859,1.5861,0,0,0,0,0,0,0,0,0,0,0,0,0,1.5618,1.562,1.5737,1.5738,1.5738,1.5798,1.5799,1.58,1.5792,1.579,1.5789,1.5788,1.5855,1.5858,1.5862,0,0,0,0,0,0,0,0,0,0,0,0,0,1.5674,1.5621,1.5737,1.5741,1.5742,1.5798,1.5799,1.58,1.5792,1.579,1.5789,1.5787,1.5854,1.5858,1.5862,1.5918,0,0,1.5875,1.5876,0,0,0,0,0,0,0,0,1.5671,1.5678,1.574,1.5741,1.5742,1.5785,1.5782,1.584,1.5792,1.5773,1.5788,1.5787,1.5834,1.584,1.5855,1.5921,1.5924,1.5875,1.5877,1.5879,1.588,0,0,0,0,0,0,0,1.5667,1.5676,1.5761,1.5741,1.5742,1.5742,1.5748,1.5793,1.5812,1.5775,1.5774,1.5781,1.5834,1.5851,1.5856,1.5925,1.5875,1.5879,1.5881,1.5883,1.6043,1.6045,0,0,0,0,0,0,1.5661,1.5672,1.5759,1.5763,1.5702,1.5746,1.5753,1.5773,1.5811,1.5815,1.5783,1.5781,1.5844,1.5851,1.5859,1.5928,1.5879,1.5883,1.5885,1.6041,1.6043,1.6045,0,0,0,0,0,0,1.5658,1.5669,1.5757,1.5718,1.5729,1.5749,1.5773,1.5775,1.5791,1.5817,1.5821,1.5795,1.5844,1.5853,1.5903,1.593,1.5885,1.5889,1.6039,1.6042,1.6044,1.6066,0,0,0,0,0,0,1.5655,1.5668,1.5688,1.5718,1.5731,1.5799,1.5774,1.5778,1.5798,1.5796,1.583,1.5834,1.5843,1.5897,1.5908,1.5935,1.5892,1.6037,1.604,1.6044,1.6063,1.6069,1.6074,0,0,0,0,0,1.5651,1.5692,1.5689,1.5699,1.5756,1.58,1.5808,1.5816,1.58,1.5821,1.5838,1.5833,1.5925,1.5903,1.5914,1.5943,1.6035,1.6039,1.6043,1.606,1.6067,1.6074,0,0,0,0,0,0,1.5666,1.5696,1.5693,1.5745,1.577,1.5799,1.5826,1.5823,1.5854,1.5851,1.5862,1.5869,1.5921,1.5937,1.5911,1.6,1.5978,1.5985,1.5987,1.5995,1.6,1.5995,1.5895,0,0,0,0,0,1.5675,1.5706,1.5732,1.5775,1.5788,1.5805,1.5824,1.5828,1.5856,1.5867,1.5887,1.5915,1.595,1.5973,1.6007,1.6065,1.6073,1.6091,1.6097,1.6101,1.6106,1.614,1.6148,1.6059,1.6059,1.6058,0,0,1.5694,1.5715,1.5734,1.5779,1.5799,1.5833,1.5814,1.5851,1.5877,1.5873,1.5921,1.5938,1.597,1.6025,1.605,1.604,1.6133,1.6106,1.6109,1.6113,1.6145,1.6153,1.6161,1.6061,1.6061,1.606,0,0,1.5747,1.5765,1.5803,1.5824,1.5854,1.5865,1.5875,1.5905,1.5915,1.5964,1.5962,1.5995,1.6055,1.6078,1.6098,1.6162,1.6159,1.6173,1.6202,1.6235,1.6242,1.6248,1.6272,1.628,1.6178,1.6178,1.6178,0,1.5767,1.5817,1.5824,1.5862,1.5882,1.5879,1.5919,1.594,1.598,1.5995,1.5983,1.606,1.6081,1.6142,1.6158,1.6174,1.6186,1.6169,1.624,1.6246,1.6252,1.6275,1.6284,1.618,1.618,1.618,1.6179,0,1.5841,1.5877,1.5905,1.5942,1.5966,1.6005,1.602,1.6044,1.6047,1.606,1.6111,1.6137,1.6176,1.6191,1.6195,1.6254,1.6246,1.6237,1.6215,1.6262,1.6284,1.6293,1.6182,1.6182,1.6181,1.6181,0,0,1.5903,1.5946,1.5956,1.5974,1.6008,1.6036,1.6076,1.6114,1.6135,1.6164,1.6198,1.625,1.6242,1.6265,1.6271,1.63,1.635,1.6287,1.6288,1.6298,1.6418,1.6425,1.6435,1.6349,1.635,1.6352,1.6416,0,1.5959,1.6028,1.6036,1.6098,1.6132,1.613,1.6166,1.6192,1.6206,1.6238,1.6254,1.6291,1.6277,1.6291,1.6319,1.6338,1.6375,1.6334,1.6383,1.6384,1.6374,1.6446,1.6453,1.6512,1.6424,1.6426,1.6427,0,1.6033,1.6063,1.6128,1.6159,1.6174,1.6205,1.6241,1.6271,1.6302,1.631,1.6336,1.6339,1.6383,1.636,1.6422,1.6394,1.6415,1.6427,1.643,1.6435,1.6408,1.6453,1.6531,1.654,1.644,1.6439,1.6438,0,1.6072,1.6129,1.6176,1.6191,1.6228,1.6251,1.6268,1.6296,1.6319,1.6352,1.6367,1.6405,1.6426,1.6456,1.647,1.6452,1.6531,1.6509,1.6541,1.6541,1.6557,1.6556,1.6639,1.6571,1.6571,1.657,1.657,0,1.6134,1.6174,1.6194,1.6222,1.6268,1.6279,1.6324,1.634,1.6367,1.64,1.6402,1.6434,1.6451,1.6486,1.6497,1.6547,1.6557,1.6566,1.6569,1.6566,1.6565,1.6579,1.6576,1.6573,1.6572,1.6572,1.6571,0,1.6184,1.6199,1.625,1.6282,1.6291,1.6323,1.6351,1.638,1.6394,1.6437,1.6447,1.6471,1.6512,1.653,1.6581,1.6589,1.6646,1.6646,1.6635,1.6636,1.6667,1.6664,1.6763,1.6777,1.6699,1.67,1.67,0,1.6222,1.6253,1.6288,1.631,1.6327,1.6363,1.6386,1.6399,1.6423,1.6462,1.6487,1.6528,1.6561,1.6628,1.665,1.669,1.6691,1.6723,1.6697,1.6694,1.6692,1.669,1.6694,1.6728,1.6728,1.6729,1.673,0,1.6288,1.6295,1.6327,1.6363,1.6391,1.642,1.6449,1.6467,1.6485,1.6513,1.6555,1.6581,1.6633,1.6674,1.6716,1.6736,1.6736,1.6738,1.6747,1.6744,1.6737,1.6742,1.6648,1.6735,1.6735,1.6734,1.6734,1.6734,1.6334,1.6361,1.6391,1.6428,1.6451,1.6478,1.6507,1.6525,1.656,1.6602,1.6609,1.6654,1.6687,1.6742,1.6764,1.6801,1.6793,1.6806,1.681,1.6813,1.6815,1.6731,1.6808,1.6808,1.6808,1.6808,1.6808,0,1.64,1.6419,1.6453,1.6493,1.6523,1.652,1.6553,1.6578,1.6617,1.6647,1.668,1.6729,1.677,1.6797,1.6838,1.6863,1.6865,1.6874,1.6872,1.6877,1.6819,1.6807,1.6872,1.6872,1.6872,1.6872,1.6872,1.6872,1.6437,1.6484,1.6495,1.6554,1.6574,1.6617,1.6636,1.6662,1.6686,1.674,1.6774,1.6791,1.682,1.6864,1.6903,1.691,1.6925,1.6935,1.6941,1.6887,1.6881,1.6874,1.6863,1.6938,1.6938,1.6996,1.6996,1.6997]},{"header":{"parameterUnit":"m.s-1","parameterCategory":1,"la1":30.2991,"la2":30.254,"lo1":-89.0895,"lo2":-89.0444,"dy":0.0017,"dx":0.0017,"nx":28,"ny":28,"refTime":"2026-02-03T03:00:00:Z","depth":0,"parameterNumber":3,"parameterNumberName":"V-component_of_WINDS"},"data":[0,0,0,0,0,0,0,0,0,0,0,0,0,0,0,0,0,0,0,0,0,0,0,0,0,0,0,0,0,0,0,0,0,0,0,0,0,0,0,0,0,0,0,0,0,0,0,0,0,0,0,0,0,0,0,0,0,0,4.4845,4.4846,0,4.4953,4.4954,4.4955,4.4946,4.4945,4.4943,4.4942,4.5051,4.5055,4.506,0,0,0,0,0,0,0,0,0,0,0,0,0,4.463,4.4634,4.4845,4.4846,4.4848,4.4953,4.4954,4.4956,4.4947,4.4945,4.4943,4.4941,4.5049,4.5055,4.506,0,0,0,0,0,0,0,0,0,0,0,0,0,4.4729,4.4635,4.4845,4.4856,4.4858,4.4953,4.4954,4.4956,4.4947,4.4945,4.4942,4.494,4.5048,4.5054,4.5061,4.5151,0,0,4.5081,4.5084,0,0,0,0,0,0,0,0,4.4724,4.4737,4.4853,4.4855,4.4858,4.4934,4.4919,4.5021,4.4948,4.4913,4.4941,4.4939,4.5014,4.5023,4.5049,4.5156,4.5161,4.5082,4.5086,4.5088,4.509,0,0,0,0,0,0,0,4.4717,4.4732,4.4888,4.4854,4.4858,4.4855,4.4867,4.4938,4.4976,4.4916,4.4916,4.4929,4.5015,4.5042,4.5051,4.5162,4.5081,4.5087,4.5091,4.5094,4.535,4.5353,0,0,0,0,0,0,4.4707,4.4727,4.4884,4.4891,4.4783,4.4861,4.4874,4.4912,4.4975,4.4982,4.4931,4.4928,4.5032,4.5043,4.5055,4.5166,4.5088,4.5095,4.5098,4.5347,4.5351,4.5354,0,0,0,0,0,0,4.4703,4.4722,4.488,4.4809,4.4829,4.4867,4.491,4.4915,4.4943,4.4986,4.4993,4.4952,4.5031,4.5046,4.5127,4.5169,4.5098,4.5104,4.5344,4.5348,4.5352,4.5387,0,0,0,0,0,0,4.4697,4.472,4.4755,4.481,4.4833,4.4951,4.4913,4.4919,4.4955,4.4952,4.5008,4.5015,4.503,4.5118,4.5134,4.5177,4.5109,4.534,4.5346,4.5351,4.5383,4.5392,4.54,0,0,0,0,0,4.4689,4.476,4.4757,4.4776,4.4877,4.4953,4.4966,4.4983,4.4958,4.4993,4.5021,4.5013,4.5162,4.5126,4.5145,4.519,4.5338,4.5344,4.535,4.5379,4.539,4.54,0,0,0,0,0,0,4.4708,4.4767,4.4764,4.4855,4.4899,4.4952,4.4997,4.4994,4.5046,4.5042,4.5059,4.5072,4.5154,4.518,4.5139,4.5281,4.5247,4.5257,4.5262,4.5273,4.5282,4.5274,4.5114,0,0,0,0,0,4.4723,4.478,4.4829,4.4904,4.4926,4.4958,4.4992,4.5,4.5047,4.5065,4.5099,4.5144,4.5201,4.5238,4.5293,4.5386,4.5398,4.5427,4.5435,4.5443,4.5452,4.5504,4.5517,4.5374,4.5374,4.5374,0,0,4.4754,4.4793,4.4828,4.4909,4.4944,4.5003,4.4974,4.5037,4.5081,4.5075,4.5155,4.5181,4.5232,4.5321,4.5361,4.5345,4.5494,4.5451,4.5456,4.5461,4.5511,4.5525,4.5537,4.5379,4.5378,4.5377,0,0,4.4841,4.4876,4.4944,4.498,4.5034,4.5055,4.5071,4.5124,4.5142,4.5222,4.5219,4.5271,4.5369,4.5406,4.5438,4.554,4.5535,4.5557,4.5604,4.5654,4.5666,4.5676,4.5713,4.5726,4.5566,4.5566,4.5566,0,4.4873,4.4962,4.4978,4.5043,4.5079,4.5076,4.5145,4.5179,4.5248,4.5273,4.5254,4.5377,4.5411,4.5508,4.5534,4.5559,4.5578,4.5551,4.5663,4.5673,4.5683,4.5718,4.5732,4.5568,4.5568,4.5568,4.5567,0,4.4999,4.5061,4.5109,4.5177,4.5218,4.5284,4.531,4.5349,4.5355,4.5377,4.5459,4.5501,4.5564,4.5588,4.5593,4.5686,4.5674,4.5659,4.5624,4.5698,4.5732,4.5746,4.5572,4.5571,4.557,4.5569,0,0,4.5101,4.5178,4.5195,4.5226,4.5286,4.5335,4.5401,4.5464,4.5498,4.5545,4.5601,4.5684,4.5671,4.5707,4.5716,4.576,4.584,4.5739,4.5741,4.5758,4.5946,4.5958,4.5974,4.5836,4.5839,4.5841,4.5942,0,4.5195,4.5313,4.533,4.5434,4.5492,4.5491,4.5548,4.5591,4.5614,4.5666,4.5691,4.575,4.5727,4.5749,4.5793,4.5821,4.5878,4.5814,4.5889,4.5892,4.5877,4.5991,4.6004,4.6097,4.5955,4.5957,4.5959,0,4.532,4.5373,4.5483,4.5536,4.5561,4.5612,4.5672,4.5722,4.5771,4.5784,4.5825,4.5829,4.5898,4.586,4.5955,4.5911,4.5942,4.5961,4.5965,4.5973,4.593,4.6004,4.6127,4.6142,4.598,4.5978,4.5977,0,4.5385,4.5483,4.5562,4.5588,4.5652,4.5689,4.5717,4.5763,4.58,4.5852,4.5876,4.5935,4.5967,4.6013,4.6033,4.6003,4.6127,4.609,4.614,4.614,4.6167,4.6165,4.6299,4.6186,4.6186,4.6185,4.6185,0,4.5488,4.5556,4.5592,4.564,4.5716,4.5735,4.5809,4.5836,4.5878,4.5932,4.5934,4.5984,4.6007,4.6061,4.6077,4.6154,4.6168,4.6181,4.6184,4.6181,4.618,4.6203,4.6197,4.6189,4.6188,4.6188,4.6187,0,4.5574,4.56,4.5686,4.574,4.5755,4.5809,4.5855,4.5902,4.5924,4.5993,4.601,4.6045,4.6109,4.6133,4.621,4.6221,4.631,4.6308,4.6294,4.6295,4.6344,4.634,4.6498,4.652,4.6392,4.6393,4.6394,0,4.5638,4.569,4.575,4.5787,4.5817,4.5875,4.5914,4.5934,4.5974,4.6034,4.6074,4.6138,4.619,4.6291,4.6324,4.6383,4.6383,4.6434,4.6392,4.6387,4.6385,4.6382,4.6388,4.6442,4.6444,4.6445,4.6445,0,4.5751,4.5762,4.5817,4.5877,4.5923,4.5972,4.6018,4.6048,4.6076,4.612,4.6186,4.6226,4.6306,4.6369,4.6431,4.6459,4.6457,4.6459,4.6474,4.6471,4.6462,4.6469,4.6316,4.6455,4.6454,4.6453,4.6453,4.6452,4.5828,4.5875,4.5925,4.5987,4.6025,4.6069,4.6116,4.6145,4.6201,4.6268,4.6276,4.6347,4.6395,4.6477,4.6508,4.6564,4.655,4.6571,4.6577,4.6582,4.6586,4.6452,4.6575,4.6575,4.6574,4.6574,4.6574,0,4.5942,4.5974,4.6031,4.6097,4.6146,4.614,4.6192,4.6234,4.6296,4.6341,4.6393,4.6469,4.6531,4.6568,4.663,4.6667,4.6668,4.6683,4.6681,4.6688,4.6594,4.6576,4.6681,4.6681,4.6681,4.6681,4.6681,4.6681,4.6006,4.6086,4.6103,4.6201,4.6233,4.6303,4.6333,4.6374,4.6411,4.6495,4.6547,4.6572,4.6614,4.6679,4.6736,4.6745,4.6768,4.6785,4.6793,4.6705,4.6694,4.6684,4.6666,4.6789,4.6789,4.6882,4.6883,4.6883]}]]